CZ-3B DEB, 40160

Orbit data source: Space-Track

CZ-3B DEB, 40160 is space debris in HEO originally from a launch on Sat, 04 Sep 2010 UTC launched from the Xichang Space Center, China (XSC). Debris objects in space refer to the collection of defunct objects orbiting the Earth. Examples of debris include non-operational satellites, rocket bodies, and fragments generated from explosions, collisions, or faulty payload assembly.

Loading next visibility...
Identifier
40160, 2010-042M
Orbit
HEO
Country
Flag of CNCN / PRC
Related business
Manufacturer
CALT
Mission
Spacecraft
Bus & Motor
Unknown
Mass
Unknown
Launch date (UTC)
2010-09-04 (16 years ago)
Launch vehicle
Unknown
Launch site
Xichang Space Center, China (XSC)
Object type
Payload
Rocket body
Debris
Shape & HBR
Unknown shape, 0.3 m
Radar Cross Section
Medium (>0.1 m² and <1 m²)

Expand to show TLE details & history
Last TLE update: 3 days ago

TLE from 3 days ago
0 CZ-3B DEB
1 40160U 10042M   26070.19234944  .00000068  00000-0  00000+0 0  9992
2 40160  27.2024 280.0132 7238752 311.2246 325.2851  1.89892748 85352
Epoch: 2026-03-11T04:36Z
TLE epoch observation values (Epoch: 2026-03-11T04:36:58.991Z)
Latitude
-3.07781°
Longitude
-132.01936°
Altitude
15,836.559 km
Speed
4.628 km/s
True Right ascension
07h 04m 20s
True Declination
-3° 04' 19"
Sunlit
Object was in daylight at epoch
Visualization orbit readout
Latitude
Unknown
Longitude
Unknown
Altitude
Unknown
Speed
Unknown
Apparent Right ascension
Unknown
Apparent Declination
Unknown
Sunlit
N/A
Visualization observer readout
Local Sidereal Time
02:01:31
Azimuth
Unknown
Elevation
Unknown
Doppler factor
Unknown
Orbital elements
Apogee altitude
41,113.999 km
Perigee altitude
1,229.001 km
Semi-major axis
27,549.637 km
Eccentricity
0.72388
Inclination
27.2024°
RAAN
280.0132°
Arg. of periapsis
311.2246°
True anomaly
235.3254°
Mean anomaly
325.2851°
Eccentric anomaly
285.27539°
Mean motion
0.47465 °/min
Orbital period
758.46 mins
BSTAR
0
Loading maneuver chart data...
Computing Atmospheric mass density...
Loading historical data...
Loading historical data...
Loading historical data...
Loading historical data...
Loading historical data...
Loading historical data...
Loading historical data...

Documentation

Showing up to 5 results
|